Date String (YYYY-MM-DD hh:mm:ss) UTC,Instrument flags,Ambient pressure (hPa),Sample flow (lpm),Bypass flow (lpm),Sample temperature (°C),Ambient temperature (°C),ASC tube jacket temperature (°C),LED temperature (°C),Box temperature (°C),Sample RH (%),Span deviation,Mass concentration (μg/m³),Mass concentration (μg/m³),Mass concentration (μg/m³)
DateTimeUTC,F1_M11,P_M11,Q1_M11,Q2_M11,T1_M11,T2_M11,T3_M11,T4_M11,T5_M11,U1_M11,ZSPAN_M11,X0_M11,X2_M11,X1_M11
2021-11-11 11:00:00,,0827.6,4.99,0.00,22.4,21.6,00.0,31.4,24.1,13.6,0000.0,0014.32,0004.82,0003.65
2021-11-11 11:01:00,,0827.5,5.01,0.00,22.4,21.5,00.0,31.4,24.1,13.6,0000.0,0013.39,0004.87,0003.66
2021-11-11 11:02:00,,0827.5,5.00,0.00,22.4,22.0,00.0,31.5,24.3,13.6,0000.0,0012.82,0004.91,0003.67
2021-11-11 11:03:00,,0827.6,5.00,0.00,22.5,22.7,00.0,31.5,24.5,13.6,0000.0,0013.03,0004.92,0003.67
2021-11-11 11:04:00,,0827.5,4.99,0.00,22.6,23.1,00.0,31.5,24.6,13.5,0000.0,0013.46,0004.88,0003.67
2021-11-11 11:05:00,,0827.6,5.01,0.00,22.7,23.0,00.0,31.5,24.6,13.4,0000.0,0013.39,0004.85,0003.68
2021-11-11 11:06:00,,0827.7,5.00,0.00,22.7,22.8,00.0,31.6,24.6,13.3,0000.0,0013.47,0004.82,0003.68
2021-11-11 11:07:00,,0827.6,5.02,0.00,22.7,22.6,00.0,31.6,24.6,13.3,0000.0,0014.03,0004.77,0003.69
2021-11-11 11:08:00,,0827.5,4.99,0.00,22.7,22.5,00.0,31.6,24.6,13.4,0000.0,0013.55,0004.72,0003.70
2021-11-11 11:09:00,,0827.5,5.00,0.00,22.7,22.4,00.0,31.6,24.6,13.4,0000.0,0013.47,0004.64,0003.69
2021-11-11 11:10:00,,0827.5,5.01,0.00,22.7,22.3,00.0,31.6,24.5,13.4,0000.0,0013.71,0004.63,0003.69
2021-11-11 11:11:00,,0827.6,5.00,0.00,22.7,22.2,00.0,31.6,24.6,13.4,0000.0,0013.73,0004.63,0003.68
2021-11-11 11:12:00,,0827.6,5.00,0.00,22.7,22.2,00.0,31.6,24.5,13.4,0000.0,0013.55,0004.55,0003.68
2021-11-11 11:13:00,,0827.6,5.00,0.00,22.7,22.1,00.0,31.6,24.5,13.4,0000.0,0013.43,0004.53,0003.69
2021-11-11 11:14:00,,0827.6,5.01,0.00,22.7,22.1,00.0,31.7,24.5,13.3,0000.0,0012.87,0004.49,0003.71
2021-11-11 11:15:00,,0827.6,4.99,0.00,22.7,22.1,00.0,31.7,24.5,13.4,0000.0,0012.48,0004.50,0003.71
2021-11-11 11:16:00,,0827.5,5.01,0.00,22.7,22.0,00.0,31.7,24.5,13.4,0000.0,0012.36,0004.50,0003.71
2021-11-11 11:17:00,,0827.5,4.99,0.00,22.7,22.0,00.0,31.7,24.5,13.3,0000.0,0011.86,0004.48,0003.69
2021-11-11 11:18:00,,0827.6,5.00,0.00,22.7,21.9,00.0,31.7,24.5,13.1,0000.0,0011.13,0004.45,0003.68
2021-11-11 11:19:00,,0827.6,5.01,0.00,22.7,21.9,00.0,31.7,24.4,13.1,0000.0,0012.04,0004.48,0003.66
2021-11-11 11:20:00,,0827.5,4.99,0.00,22.7,21.9,00.0,31.7,24.4,13.2,0000.0,0012.67,0004.52,0003.67
2021-11-11 11:21:00,,0827.6,5.01,0.00,22.7,21.9,00.0,31.7,24.4,13.2,0000.0,0012.36,0004.53,0003.69
2021-11-11 11:22:00,,0827.6,4.99,0.00,22.6,21.9,00.0,31.7,24.4,13.2,0000.0,0012.32,0004.54,0003.70
2021-11-11 11:23:00,,0827.5,5.00,0.00,22.6,21.9,00.0,31.7,24.4,13.2,0000.0,0012.33,0004.55,0003.71
2021-11-11 11:24:00,,0827.5,4.99,0.00,22.7,21.9,00.0,31.7,24.4,13.1,0000.0,0011.91,0004.51,0003.69
2021-11-11 11:25:00,,0827.5,5.01,0.00,22.6,21.8,00.0,31.7,24.4,13.2,0000.0,0011.74,0004.49,0003.66
2021-11-11 11:26:00,,0827.5,4.98,0.00,22.6,21.8,00.0,31.7,24.4,13.1,0000.0,0011.10,0004.45,0003.64
2021-11-11 11:27:00,,0827.5,5.02,0.00,22.6,21.8,00.0,31.7,24.4,13.2,0000.0,0011.04,0004.39,0003.63
2021-11-11 11:28:00,,0827.5,4.99,0.00,22.6,21.8,00.0,31.7,24.4,13.2,0000.0,0011.31,0004.40,0003.62
2021-11-11 11:29:00,,0827.5,5.01,0.00,22.6,21.8,00.0,31.7,24.4,13.2,0000.0,0011.26,0004.41,0003.62
2021-11-11 11:30:00,,0827.5,5.01,0.00,22.6,21.8,00.0,31.7,24.4,13.1,0000.0,0010.57,0004.37,0003.62
2021-11-11 11:31:00,,0827.5,4.99,0.00,22.6,21.8,00.0,31.7,24.4,13.1,0000.0,0009.05,0004.33,0003.61
2021-11-11 11:32:00,,0827.5,5.01,0.00,22.6,21.8,00.0,31.7,24.4,13.1,0000.0,0008.82,0004.28,0003.59
2021-11-11 11:33:00,,0827.5,4.99,0.00,22.6,21.8,00.0,31.7,24.4,13.0,0000.0,0008.71,0004.20,0003.57
2021-11-11 11:34:00,,0827.5,5.01,0.00,22.6,21.8,00.0,31.7,24.4,13.0,0000.0,0008.55,0004.17,0003.56
2021-11-11 11:35:00,,0827.6,5.01,0.00,22.6,21.8,00.0,31.7,24.4,13.0,0000.0,0009.45,0004.18,0003.56
2021-11-11 11:36:00,,0827.5,4.99,0.00,22.6,21.8,00.0,31.7,24.4,13.0,0000.0,0009.65,0004.18,0003.56
2021-11-11 11:37:00,,0827.5,4.99,0.00,22.6,21.8,00.0,31.6,24.3,12.9,0000.0,0009.47,0004.17,0003.57
2021-11-11 11:38:00,,0827.5,5.01,0.00,22.6,21.7,00.0,31.6,24.3,13.0,0000.0,0009.12,0004.17,0003.57
2021-11-11 11:39:00,,0827.6,5.00,0.00,22.6,21.7,00.0,31.6,24.3,13.0,0000.0,0008.89,0004.15,0003.58
2021-11-11 11:40:00,,0827.6,4.99,0.00,22.6,21.7,00.0,31.6,24.3,13.0,0000.0,0008.58,0004.17,0003.59
2021-11-11 11:41:00,,0827.7,5.02,0.00,22.6,21.7,00.0,31.6,24.3,13.0,0000.0,0008.61,0004.17,0003.59
2021-11-11 11:42:00,,0827.7,5.00,0.00,22.6,21.7,00.0,31.6,24.3,13.1,0000.0,0008.68,0004.15,0003.59
2021-11-11 11:43:00,,0827.7,4.99,0.00,22.6,21.7,00.0,31.6,24.3,13.0,0000.0,0008.74,0004.18,0003.61
2021-11-11 11:44:00,,0827.7,5.01,0.00,22.6,21.7,00.0,31.6,24.3,13.0,0000.0,0008.86,0004.24,0003.62
2021-11-11 11:45:00,,0827.7,5.00,0.00,22.6,21.7,00.0,31.6,24.3,13.0,0000.0,0009.10,0004.27,0003.63
2021-11-11 11:46:00,,0827.6,5.00,0.00,22.5,21.7,00.0,31.6,24.3,13.0,0000.0,0008.65,0004.28,0003.65
2021-11-11 11:47:00,,0827.6,4.99,0.00,22.5,21.7,00.0,31.6,24.2,13.0,0000.0,0008.87,0004.31,0003.66
2021-11-11 11:48:00,,0827.5,5.00,0.00,22.5,21.6,00.0,31.6,24.2,13.1,0000.6,0008.94,0004.33,0003.67
2021-11-11 11:49:00,,0827.5,5.02,0.00,22.5,21.6,00.0,31.6,24.2,13.1,0001.8,0009.11,0004.39,0003.68
2021-11-11 11:50:00,,0827.7,4.99,0.00,22.5,21.6,00.0,31.6,24.2,13.0,0002.3,0009.10,0004.38,0003.68
2021-11-11 11:51:00,,0827.7,4.99,0.00,22.5,21.6,00.0,31.5,24.2,13.0,0002.9,0009.59,0004.38,0003.69
2021-11-11 11:52:00,,0827.7,5.02,0.00,22.5,21.6,00.0,31.5,24.2,12.9,0002.6,0010.04,0004.36,0003.70
2021-11-11 11:53:00,,0827.8,4.99,0.00,22.4,21.6,00.0,31.5,24.2,12.8,0002.3,0010.22,0004.37,0003.71
2021-11-11 11:54:00,,0827.8,5.01,0.00,22.4,21.6,00.0,31.5,24.2,12.8,0002.1,0010.62,0004.41,0003.72
2021-11-11 11:55:00,,0827.7,5.00,0.00,22.4,21.6,00.0,31.5,24.2,12.8,0000.7,0010.77,0004.43,0003.75
2021-11-11 11:56:00,,0827.7,5.00,0.00,22.4,21.6,00.0,31.5,24.2,12.7,0000.3,0011.29,0004.46,0003.77
2021-11-11 11:57:00,,0827.7,5.00,0.00,22.4,21.6,00.0,31.5,24.2,12.7,0000.0,0011.42,0004.49,0003.79
2021-11-11 11:58:00,,0827.7,5.01,0.00,22.4,21.5,00.0,31.5,24.2,12.7,0000.0,0011.07,0004.53,0003.83
2021-11-11 11:59:00,,0827.7,4.99,0.00,22.5,21.8,00.0,31.5,24.2,12.7,0000.0,0011.24,0004.59,0003.88
